Location: Barrio Las Umbrías
(40.4173°N, 4.8685°W)
Time: 13:05:25
(UTC+00:00)

Cosmos 2082 Rocket - Pass Details

Date: 17 August 2022
Orbit: 834 x 852 km, 71.0° (Epoch: 28 September)

Event Time Altitude Azimuth Distance (km) Brightness Sun altitude
Rises 23:17:01 0° 334° (NNW) 3,389 6.4 -34.2°
Reaches altitude 10° 23:19:28 10° 333° (NNW) 2,451 5.4 -34.4°
Enters shadow 23:23:01 40° 323° (NW) 1,210 3.3 -34.6°
